TimeCST,TemperatureF,Dew PointF,Humidity,Sea Level PressureIn,VisibilityMPH,Wind Direction,Wind SpeedMPH,Gust SpeedMPH,PrecipitationIn,Events,Conditions,WindDirDegrees,DateUTC
12:15 AM,42.8,34.7,73,30.27,10.0,ESE,6.9,-,N/A,,Clear,120,2012-11-19 06:15:00
12:35 AM,43.2,34.7,72,30.27,10.0,Calm,Calm,-,N/A,,Clear,0,2012-11-19 06:35:00
12:55 AM,44.4,34.2,67,30.27,10.0,Calm,Calm,-,N/A,,Clear,0,2012-11-19 06:55:00
1:15 AM,43.7,34.0,69,30.27,10.0,Calm,Calm,-,N/A,,Clear,0,2012-11-19 07:15:00
1:35 AM,44.4,33.6,66,30.27,10.0,SSE,3.5,-,N/A,,Clear,150,2012-11-19 07:35:00
1:55 AM,42.8,34.2,72,30.27,10.0,Calm,Calm,-,N/A,,Clear,0,2012-11-19 07:55:00
2:15 AM,42.8,33.8,70,30.26,10.0,SSE,5.8,-,N/A,,Clear,160,2012-11-19 08:15:00
2:35 AM,43.3,33.6,69,30.26,10.0,South,3.5,-,N/A,,Clear,170,2012-11-19 08:35:00
2:55 AM,45.3,32.9,62,30.26,10.0,SSE,3.5,-,N/A,,Clear,160,2012-11-19 08:55:00
3:15 AM,43.7,33.3,67,30.26,10.0,SSE,4.6,-,N/A,,Clear,160,2012-11-19 09:15:00
3:35 AM,44.6,33.8,66,30.25,10.0,SSE,6.9,-,N/A,,Clear,160,2012-11-19 09:35:00
3:55 AM,45.5,34.3,65,30.25,10.0,SSE,4.6,-,N/A,,Clear,160,2012-11-19 09:55:00
4:15 AM,45.5,34.7,66,30.25,10.0,South,6.9,-,N/A,,Clear,170,2012-11-19 10:15:00
4:35 AM,46.8,34.7,63,30.25,10.0,South,5.8,-,N/A,,Clear,180,2012-11-19 10:35:00
4:55 AM,46.0,35.2,66,30.25,10.0,South,4.6,-,N/A,,Clear,170,2012-11-19 10:55:00
5:15 AM,45.5,35.6,68,30.25,10.0,SSE,3.5,-,N/A,,Clear,150,2012-11-19 11:15:00
5:35 AM,45.5,35.6,68,30.25,10.0,SSE,4.6,-,N/A,,Clear,150,2012-11-19 11:35:00
5:55 AM,44.6,36.0,72,30.25,10.0,South,4.6,-,N/A,,Clear,170,2012-11-19 11:55:00
6:15 AM,45.3,36.0,70,30.25,10.0,SSE,3.5,-,N/A,,Clear,150,2012-11-19 12:15:00
6:35 AM,45.7,36.3,70,30.25,10.0,SSE,3.5,-,N/A,,Clear,160,2012-11-19 12:35:00
6:55 AM,46.6,36.3,67,30.25,10.0,South,6.9,-,N/A,,Clear,180,2012-11-19 12:55:00
7:15 AM,48.2,35.6,62,30.25,10.0,South,6.9,-,N/A,,Scattered Clouds,180,2012-11-19 13:15:00
7:35 AM,47.5,36.3,65,30.25,10.0,South,5.8,-,N/A,,Scattered Clouds,180,2012-11-19 13:35:00
7:55 AM,47.3,36.9,67,30.25,10.0,Calm,Calm,-,N/A,Rain,Rain,0,2012-11-19 13:55:00
8:15 AM,46.4,38.7,74,30.25,10.0,SSE,5.8,-,N/A,,Mostly Cloudy,160,2012-11-19 14:15:00
8:35 AM,46.8,39.2,75,30.25,10.0,South,3.5,-,N/A,,Overcast,180,2012-11-19 14:35:00
8:55 AM,47.5,38.8,72,30.25,10.0,South,4.6,-,N/A,,Overcast,170,2012-11-19 14:55:00
9:15 AM,47.7,40.1,75,30.25,10.0,SSE,4.6,-,N/A,,Overcast,150,2012-11-19 15:15:00
9:35 AM,47.3,40.5,77,30.25,10.0,SE,4.6,-,N/A,,Overcast,130,2012-11-19 15:35:00
9:55 AM,47.3,39.9,76,30.26,10.0,SSE,5.8,-,N/A,,Overcast,150,2012-11-19 15:55:00
10:15 AM,47.7,39.9,75,30.25,10.0,SE,5.8,-,N/A,,Overcast,140,2012-11-19 16:15:00
10:35 AM,48.6,40.3,73,30.25,10.0,SSE,4.6,-,N/A,,Overcast,160,2012-11-19 16:35:00
10:55 AM,50.5,40.8,69,30.24,10.0,South,4.6,-,N/A,Rain,Light Rain,180,2012-11-19 16:55:00
11:15 AM,52.0,40.6,65,30.23,10.0,SSW,9.2,-,N/A,Rain,Light Rain,200,2012-11-19 17:15:00
11:35 AM,51.4,40.8,67,30.23,10.0,South,6.9,-,N/A,,Overcast,190,2012-11-19 17:35:00
11:55 AM,50.9,40.8,68,30.21,10.0,South,5.8,-,N/A,,Overcast,180,2012-11-19 17:55:00
12:15 PM,50.0,41.7,73,30.21,10.0,South,5.8,-,N/A,,Light Drizzle,180,2012-11-19 18:15:00
12:35 PM,50.0,43.0,77,30.19,10.0,SSE,4.6,-,N/A,,Light Drizzle,160,2012-11-19 18:35:00
12:55 PM,51.1,43.2,74,30.18,10.0,SSE,9.2,-,N/A,,Overcast,160,2012-11-19 18:55:00
1:15 PM,51.4,43.0,73,30.18,10.0,SSE,6.9,-,N/A,,Overcast,160,2012-11-19 19:15:00
1:35 PM,52.2,43.3,72,30.17,10.0,South,8.1,-,N/A,,Overcast,170,2012-11-19 19:35:00
1:55 PM,52.7,43.7,71,30.16,10.0,SSE,10.4,-,N/A,,Overcast,160,2012-11-19 19:55:00
2:15 PM,53.6,43.9,70,30.15,10.0,SSE,10.4,-,N/A,,Overcast,160,2012-11-19 20:15:00
2:35 PM,53.8,43.9,69,30.15,10.0,SSE,10.4,-,N/A,,Overcast,150,2012-11-19 20:35:00
2:55 PM,54.3,43.9,68,30.14,10.0,SSE,6.9,-,N/A,,Overcast,150,2012-11-19 20:55:00
3:15 PM,54.5,43.9,67,30.13,10.0,SSE,9.2,-,N/A,,Overcast,150,2012-11-19 21:15:00
3:35 PM,54.9,44.1,67,30.14,10.0,SSE,6.9,-,N/A,,Overcast,160,2012-11-19 21:35:00
3:55 PM,54.5,44.6,69,30.13,10.0,SSE,6.9,-,N/A,,Mostly Cloudy,160,2012-11-19 21:55:00
4:15 PM,54.3,44.1,68,30.13,10.0,SSE,5.8,-,N/A,,Scattered Clouds,150,2012-11-19 22:15:00
4:35 PM,53.6,43.9,70,30.12,10.0,SSE,5.8,-,N/A,,Mostly Cloudy,150,2012-11-19 22:35:00
4:55 PM,52.9,43.0,69,30.13,10.0,SSE,3.5,-,N/A,,Overcast,160,2012-11-19 22:55:00
5:15 PM,52.7,42.8,69,30.12,10.0,SSE,4.6,-,N/A,,Overcast,160,2012-11-19 23:15:00
5:35 PM,52.7,42.4,68,30.13,10.0,South,4.6,-,N/A,,Overcast,170,2012-11-19 23:35:00
5:55 PM,52.5,42.6,69,30.13,10.0,SE,4.6,-,N/A,,Overcast,140,2012-11-19 23:55:00
6:15 PM,50.9,42.1,72,30.13,10.0,SSE,6.9,-,N/A,,Mostly Cloudy,160,2012-11-20 00:15:00
6:35 PM,51.1,41.5,70,30.13,10.0,SSE,4.6,-,N/A,,Mostly Cloudy,160,2012-11-20 00:35:00
6:55 PM,49.6,41.4,73,30.12,10.0,ESE,5.8,-,N/A,,Mostly Cloudy,120,2012-11-20 00:55:00
7:15 PM,48.7,41.0,75,30.13,10.0,Calm,Calm,-,N/A,,Scattered Clouds,0,2012-11-20 01:15:00
7:35 PM,50.0,41.0,71,30.14,10.0,Calm,Calm,-,N/A,,Mostly Cloudy,0,2012-11-20 01:35:00
7:55 PM,50.9,41.5,70,30.14,10.0,Calm,Calm,-,N/A,,Overcast,0,2012-11-20 01:55:00
8:15 PM,50.2,41.4,72,30.13,10.0,Calm,Calm,-,N/A,,Mostly Cloudy,0,2012-11-20 02:15:00
8:35 PM,49.1,41.4,75,30.13,10.0,South,4.6,-,N/A,,Mostly Cloudy,190,2012-11-20 02:35:00
8:55 PM,50.0,42.8,76,30.13,10.0,South,3.5,-,N/A,,Overcast,170,2012-11-20 02:55:00
9:15 PM,50.0,42.8,76,30.13,7.0,South,4.6,-,N/A,,Overcast,180,2012-11-20 03:15:00
9:35 PM,49.1,42.1,77,30.12,10.0,Calm,Calm,-,N/A,,Mostly Cloudy,0,2012-11-20 03:35:00
9:55 PM,47.3,41.2,79,30.12,10.0,South,3.5,-,N/A,,Clear,180,2012-11-20 03:55:00
10:15 PM,48.4,41.5,77,30.12,7.0,Calm,Calm,-,N/A,,Clear,0,2012-11-20 04:15:00
10:35 PM,47.5,41.5,80,30.12,5.0,South,3.5,-,N/A,,Haze,180,2012-11-20 04:35:00
10:55 PM,46.9,41.2,80,30.11,10.0,South,4.6,-,N/A,,Clear,190,2012-11-20 04:55:00
11:15 PM,46.6,41.2,81,30.11,10.0,SSW,4.6,-,N/A,,Clear,200,2012-11-20 05:15:00
11:35 PM,46.6,41.4,82,30.11,10.0,SSW,5.8,-,N/A,,Clear,200,2012-11-20 05:35:00
11:55 PM,46.9,42.3,84,30.11,10.0,SSW,4.6,-,N/A,,Clear,200,2012-11-20 05:55:00